Stigler, OK

1:39 AM CST on December 11, 2016 (GMT -0600)
Stigler

Weather History for KGZL - July, 2013

Change the Weather History Date:

Monday, July 15, 2013

  Actual Average (KJSV) Record (KJSV)
Temperature  
Mean Temperature 76 °F -  
Max Temperature 84 °F 94 °F 108 °F (1954)
Min Temperature 68 °F 69 °F 50 °F (1990)
Cooling Degree Days 11    
Growing Degree Days 26 (Base 50)    
Moisture  
Dew Point 65 °F    
Average Humidity 71    
Maximum Humidity 94    
Minimum Humidity 45    
Precipitation  
Precipitation 0.19 in - - ()
Sea Level Pressure  
Sea Level Pressure 30.09 in    
Wind  
Wind Speed 6 mph (ESE)    
Max Wind Speed 14 mph    
Max Gust Speed 25 mph    
Visibility 9 miles    
Events Rain    
Averages and records for this station are not official NWS values.
T = Trace of Precipitation, MM = Missing Value Source: NWS Daily Summary

Daily Weather History Graph

Daily Weather History Graph

Search for Another Location

Airport or City:

Trip Planner

Search our weather history database for the weather conditions in past years. The results will help you decide how hot, cold, wet, or windy it might be!

Date:

Astronomy

Jul. 15, 2013 Rise Set
Actual Time 6:17 AM CDT 8:35 PM CDT
Civil Twilight 5:48 AM CDT 9:04 PM CDT
Nautical Twilight 5:12 AM CDT 9:39 PM CDT
Astronomical Twilight 4:33 AM CDT 10:18 PM CDT
Moon 1:19 PM CDT (7/15) 12:05 AM CDT (7/15)
Length of Visible Light 15h 16m
Length of Day
14h 18m
Waxing Crescent, 45% of the Moon is Illuminated
Jul 15
Waxing Crescent
Jul 15
First Quarter
Jul 22
Full
Jul 29
Last Quarter
Aug 6
New

Hourly Weather History & Observations

Time (CDT) Temp. Heat Index Dew Point Humidity Pressure Visibility Wind Dir Wind Speed Gust Speed Precip Events Conditions
12:15 AM 69.8 °F - 60.8 °F 73% 30.03 in 10.0 mi WSW 4.6 mph - N/A   Unknown
12:35 AM 71.6 °F - 60.8 °F 69% 30.04 in 10.0 mi Calm Calm - N/A   Unknown
12:55 AM 71.6 °F - 60.8 °F 69% 30.03 in 10.0 mi Calm Calm - N/A   Unknown
1:15 AM 69.8 °F - 62.6 °F 78% 30.03 in 1.5 mi South 4.6 mph 25.3 mph 0.08 in Rain Light Rain
1:35 AM 68.0 °F - 64.4 °F 88% 30.03 in 10.0 mi North 6.9 mph - 0.13 in Rain Light Rain
1:55 AM 68.0 °F - 64.4 °F 88% 30.03 in 8.0 mi West 5.8 mph - 0.13 in   Unknown
2:15 AM 68.0 °F - 64.4 °F 88% 30.03 in 10.0 mi Calm Calm - N/A   Unknown
2:35 AM 68.0 °F - 62.6 °F 83% 30.03 in 10.0 mi North 3.5 mph - N/A   Unknown
2:55 AM 68.0 °F - 64.4 °F 88% 30.04 in 10.0 mi NNE 10.4 mph - N/A   Unknown
3:15 AM 68.0 °F - 64.4 °F 88% 30.03 in 9.0 mi North 4.6 mph - N/A   Unknown
3:35 AM 68.0 °F - 66.2 °F 94% 30.03 in 9.0 mi North 4.6 mph - N/A   Unknown
3:55 AM 68.0 °F - 66.2 °F 94% 30.04 in 9.0 mi Calm Calm - N/A   Unknown
4:15 AM 68.0 °F - 66.2 °F 94% 30.04 in 7.0 mi NW 3.5 mph - N/A   Unknown
4:35 AM 68.0 °F - 66.2 °F 94% 30.03 in 9.0 mi NE 3.5 mph - N/A   Unknown
4:55 AM 68.0 °F - 66.2 °F 94% 30.03 in 10.0 mi ENE 6.9 mph - N/A   Unknown
5:15 AM 69.8 °F - 66.2 °F 88% 30.04 in 10.0 mi East 8.1 mph - N/A   Unknown
5:35 AM 71.6 °F - 66.2 °F 83% 30.04 in 10.0 mi East 10.4 mph - N/A   Unknown
5:55 AM 71.6 °F - 66.2 °F 83% 30.05 in 10.0 mi East 10.4 mph 16.1 mph N/A   Unknown
6:15 AM 71.6 °F - 66.2 °F 83% 30.05 in 10.0 mi East 11.5 mph - N/A   Unknown
6:35 AM 71.6 °F - 66.2 °F 83% 30.05 in 10.0 mi East 9.2 mph - N/A   Unknown
6:55 AM 71.6 °F - 66.2 °F 83% 30.05 in 10.0 mi East 9.2 mph - N/A   Unknown
7:15 AM 71.6 °F - 66.2 °F 83% 30.06 in 9.0 mi East 10.4 mph - N/A   Unknown
7:35 AM 71.6 °F - 66.2 °F 83% 30.08 in 10.0 mi ESE 10.4 mph - N/A   Unknown
7:55 AM 73.4 °F - 66.2 °F 78% 30.08 in 10.0 mi ESE 12.7 mph 18.4 mph N/A   Unknown
8:15 AM 71.6 °F - 66.2 °F 83% 30.09 in 10.0 mi ESE 10.4 mph 16.1 mph N/A   Unknown
8:35 AM 73.4 °F - 66.2 °F 78% 30.09 in 10.0 mi ESE 9.2 mph - N/A   Unknown
8:55 AM 73.4 °F - 66.2 °F 78% 30.10 in 10.0 mi ESE 10.4 mph - N/A   Unknown
9:15 AM 73.4 °F - 66.2 °F 78% 30.11 in 10.0 mi SE 10.4 mph - N/A   Unknown
9:35 AM 75.2 °F - 66.2 °F 73% 30.12 in 9.0 mi ESE 9.2 mph - N/A   Unknown
9:55 AM 75.2 °F - 66.2 °F 73% 30.11 in 10.0 mi ESE 11.5 mph - N/A   Unknown
10:15 AM 75.2 °F - 64.4 °F 69% 30.12 in 10.0 mi SE 10.4 mph - N/A   Unknown
10:35 AM 77.0 °F - 64.4 °F 65% 30.13 in 10.0 mi SSE 13.8 mph - N/A   Unknown
10:55 AM 77.0 °F - 62.6 °F 61% 30.13 in 10.0 mi SSE 12.7 mph 18.4 mph N/A   Unknown
11:15 AM 78.8 °F - 62.6 °F 57% 30.13 in 10.0 mi SSE 13.8 mph - N/A   Unknown
11:35 AM 78.8 °F - 62.6 °F 57% 30.13 in 10.0 mi SSE 11.5 mph 18.4 mph N/A   Unknown
11:55 AM 80.6 °F 81.5 °F 60.8 °F 51% 30.13 in 10.0 mi SSE 10.4 mph 21.9 mph N/A   Unknown
12:15 PM 80.6 °F 81.5 °F 60.8 °F 51% 30.13 in 10.0 mi SSE 10.4 mph 16.1 mph N/A   Unknown
12:35 PM 80.6 °F 81.1 °F 59.0 °F 48% 30.14 in 10.0 mi South 10.4 mph - N/A   Unknown
12:55 PM 80.6 °F 81.1 °F 59.0 °F 48% 30.13 in 10.0 mi South 8.1 mph - N/A   Unknown
1:15 PM 80.6 °F 81.5 °F 60.8 °F 51% 30.13 in 10.0 mi South 5.8 mph - N/A   Unknown
1:35 PM 80.6 °F 81.5 °F 60.8 °F 51% 30.13 in 10.0 mi SE 8.1 mph - N/A   Unknown
1:55 PM 82.4 °F 82.5 °F 59.0 °F 45% 30.13 in 10.0 mi SSW 10.4 mph - N/A   Unknown
2:15 PM 82.4 °F 82.5 °F 59.0 °F 45% 30.13 in 10.0 mi South 8.1 mph - N/A   Unknown
2:35 PM 82.4 °F 82.5 °F 59.0 °F 45% 30.13 in 10.0 mi South 5.8 mph - N/A   Unknown
2:55 PM 80.6 °F 81.5 °F 60.8 °F 51% 30.12 in 10.0 mi SW 5.8 mph - N/A   Unknown
3:15 PM 80.6 °F 81.5 °F 60.8 °F 51% 30.12 in 10.0 mi SW 3.5 mph - N/A   Unknown
3:35 PM 82.4 °F 83.4 °F 62.6 °F 51% 30.12 in 10.0 mi West 6.9 mph - N/A   Unknown
3:55 PM 84.2 °F 85.0 °F 62.6 °F 48% 30.11 in 10.0 mi West 6.9 mph - N/A   Unknown
4:15 PM 84.2 °F 85.0 °F 62.6 °F 48% 30.10 in 10.0 mi NW 4.6 mph - N/A   Unknown
4:35 PM 82.4 °F 83.4 °F 62.6 °F 51% 30.10 in 10.0 mi NW 4.6 mph - N/A   Unknown
4:55 PM 84.2 °F 85.0 °F 62.6 °F 48% 30.10 in 10.0 mi NNW 5.8 mph - N/A   Unknown
5:15 PM 82.4 °F 83.4 °F 62.6 °F 51% 30.10 in 10.0 mi NNW 5.8 mph - N/A   Unknown
5:35 PM 82.4 °F 83.4 °F 62.6 °F 51% 30.09 in 10.0 mi NW 4.6 mph - N/A   Unknown
5:55 PM 82.4 °F 83.9 °F 64.4 °F 54% 30.08 in 10.0 mi NW 5.8 mph - N/A   Unknown
6:15 PM 80.6 °F 82.3 °F 64.4 °F 58% 30.09 in 10.0 mi NNW 5.8 mph - N/A   Unknown
6:35 PM 80.6 °F 82.3 °F 64.4 °F 58% 30.09 in 10.0 mi NNW 5.8 mph - N/A   Unknown
6:55 PM 80.6 °F 82.3 °F 64.4 °F 58% 30.09 in 10.0 mi NNW 5.8 mph - N/A   Unknown
7:15 PM 80.6 °F 82.3 °F 64.4 °F 58% 30.09 in 10.0 mi NW 3.5 mph - N/A   Unknown
7:35 PM 78.8 °F - 66.2 °F 65% 30.10 in 10.0 mi NNW 3.5 mph - N/A   Unknown
7:55 PM 77.0 °F - 64.4 °F 65% 30.10 in 10.0 mi WNW 4.6 mph - N/A   Unknown
8:15 PM 77.0 °F - 66.2 °F 69% 30.11 in 10.0 mi Calm Calm - N/A   Unknown
8:35 PM 77.0 °F - 68.0 °F 74% 30.14 in 5.0 mi SSE 9.2 mph - 0.01 in Rain Light Rain
8:55 PM 73.4 °F - 68.0 °F 83% 30.14 in 6.0 mi Calm Calm - 0.06 in Rain Rain
9:15 PM 73.4 °F - 69.8 °F 88% 30.14 in 9.0 mi Calm Calm - N/A   Unknown
9:35 PM 73.4 °F - 69.8 °F 88% 30.15 in 9.0 mi Calm Calm - N/A   Unknown
10:15 PM 73.4 °F - 71.6 °F 94% 30.17 in 9.0 mi Calm Calm - N/A   Unknown
10:35 PM 71.6 °F - 69.8 °F 94% 30.16 in 6.0 mi NE 5.8 mph - N/A   Mist
10:55 PM 71.6 °F - 69.8 °F 94% 30.16 in 7.0 mi ENE 3.5 mph - N/A   Unknown
11:15 PM 71.6 °F - 69.8 °F 94% 30.17 in 8.0 mi Calm Calm - N/A   Unknown
11:35 PM 71.6 °F - 69.8 °F 94% 30.17 in 9.0 mi Calm Calm - N/A   Unknown
11:55 PM 69.8 °F - 68.0 °F 94% 30.17 in 5.0 mi Calm Calm - N/A   Mist